Temperature
20 20 20 20 19 19 19 19 19 19 18 18 18 18 18 18 17 17 17 17 17 17 17 17 17 17 17 17 17 17 17 16 16 16 16 16 16 15 15 15 15 15 15
20 20 19 19 19 19 19 19 19 18 18 18 18 18 18 17 17 17 17 17 17 16 16 16 16 16 16 16 16 16 16 16 16 16 16 15 15 15 15 15 15 15 15
20 19 19 19 19 18 18 18 18 18 18 18 18 18 17 17 17 17 17 17 16 16 16 16 16 16 16 16 16 16 16 16 16 15 15 15 15 15 14 14 14 14 14
20 19 19 19 19 18 18 18 18 18 18 17 17 17 17 17 17 17 17 16 16 16 16 16 16 16 16 16 16 16 16 16 15 15 15 15 15 14 14 14 14 14 14
20 19 19 18 18 18 18 18 18 17 17 17 17 17 17 17 17 16 16 16 16 16 16 16 16 16 16 15 15 15 15 15 15 15 14 14 14 14 14 14 14 14 14
20 19 19 18 18 18 18 17 17 17 17 17 17 17 17 17 16 16 16 16 16 16 16 15 15 16 15 15 15 15 15 15 15 14 14 14 14 14 14 14 13 13 13
19 19 18 18 18 18 17 17 17 17 17 17 17 16 17 17 16 16 16 16 16 15 15 15 15 15 15 15 15 15 15 15 15 14 14 14 14 14 14 13 13 13 13
19 18 18 18 18 17 17 17 17 17 17 17 17 16 16 16 16 16 16 16 16 15 15 15 15 15 15 15 15 14 14 14 14 14 14 14 14 14 13 13 13 13 13
18 18 18 17 17 17 17 17 17 17 17 17 16 16 16 16 16 16 16 16 15 15 15 15 15 15 15 15 14 14 14 14 14 14 14 14 14 14 13 13 13 13 13
18 18 18 17 17 17 17 17 17 17 17 16 16 16 16 16 16 16 16 16 15 15 15 15 15 15 15 15 14 14 14 14 14 14 14 14 13 13 13 13 13 13 12
18 17 17 17 17 17 17 17 17 16 16 16 16 16 16 16 16 16 16 16 15 15 15 15 15 15 15 14 14 14 14 14 13 13 13 13 13 13 13 13 13 13 12
17 17 17 17 17 17 17 16 16 16 16 16 16 16 16 16 16 16 16 16 15 15 15 15 15 15 15 14 14 14 14 13 13 13 13 13 13 13 13 13 13 12 12
17 17 17 17 17 17 16 16 16 16 16 16 16 16 16 16 16 16 16 16 15 15 15 15 14 14 14 14 14 14 14 13 13 13 13 13 13 13 12 12 12 12 12
17 17 17 17 17 16 16 16 16 16 16 16 16 16 16 16 16 15 15 15 15 15 15 14 14 14 14 14 14 13 13 13 13 13 13 13 12 12 12 12 12 12 12
17 16 16 16 16 16 16 16 16 16 16 16 16 15 15 15 15 15 15 15 15 14 14 14 14 14 14 14 13 13 13 13 13 13 12 12 12 12 12 12 12 11 11
16 16 16 16 16 16 16 16 16 16 16 16 16 15 15 15 15 15 15 15 14 14 14 14 14 13 13 13 13 13 13 12 12 12 12 12 12 12 12 11 11 11 11
16 16 16 16 16 15 15 15 15 16 16 15 15 15 15 15 15 15 14 14 14 14 14 13 13 13 13 13 13 13 12 12 12 12 12 12 12 11 11 11 11 11 11
15 16 16 16 15 15 15 15 15 15 15 15 15 15 15 15 15 14 14 14 14 13 13 13 13 13 13 13 12 12 12 12 12 12 11 11 11 11 11 11 11 11 11
15 15 15 15 15 15 15 15 15 15 15 15 15 15 15 14 14 14 14 13 13 13 13 13 13 12 12 12 12 12 12 12 11 11 11 11 11 11 11 11 11 11 11
15 15 15 15 15 15 15 15 15 15 15 15 14 14 14 14 14 13 13 13 13 13 12 12 12 12 12 12 12 11 11 11 11 11 11 11 10 10 10 10 10 10 10
14 15 15 15 15 14 14 15 15 14 14 14 14 14 14 14 13 13 13 13 12 12 12 12 12 12 11 11 11 11 11 11 11 10 10 10 10 10 10 10 10 10 10
14 14 14 14 14 14 14 14 14 14 14 14 14 14 14 13 13 13 13 13 12 12 12 11 11 11 11 11 11 10 10 10 10 10 10 10 10 10 9 9 9 9 9
14 14 14 14 14 14 14 14 14 14 14 13 13 13 13 13 13 12 12 12 12 11 11 11 11 11 10 10 10 10 10 10 10 10 9 9 9 9 9 9 9 9 9
14 14 14 14 14 14 14 14 13 13 13 13 13 13 13 12 12 12 12 11 11 11 11 11 10 10 10 10 10 10 9 9 9 9 9 9 9 9 9 9 8 8 8
13 14 13 13 13 13 13 13 13 13 12 12 12 12 12 12 12 12 11 11 11 10 10 10 10 10 10 9 9 9 9 9 9 9 9 8 8 8 8 8 8 8 8
13 13 13 13 13 13 12 12 12 12 12 12 12 12 11 11 11 11 11 10 10 10 10 10 9 9 9 9 9 9 8 8 8 8 8 8 8 8 8 8 8 8 8
Wind_Speed
7 6 5 5 4 4 2 2 2 2 2 2 2 2 2 2 2 1 1 1 1 1 2 1 2 2 1 2 1 1 1 1 1 1 0 0 1 1 3 4 5 7 6
7 6 5 5 4 4 3 2 2 2 2 3 3 2 2 2 2 2 1 1 1 1 1 1 1 1 1 2 2 1 1 1 1 1 0 0 1 2 3 3 4 5 5
8 8 6 5 5 4 3 3 3 3 3 2 2 2 2 2 1 1 2 1 1 1 1 1 1 1 1 1 2 1 1 1 1 1 1 1 1 2 2 2 2 2 4
9 8 7 5 5 4 4 4 3 3 3 2 2 2 3 2 1 1 2 2 1 1 1 1 1 1 1 2 2 1 1 1 1 1 2 1 1 2 2 2 2 2 2
8 8 7 6 5 4 4 4 3 3 3 2 2 2 2 2 2 1 2 2 2 2 1 1 0 0 0 1 1 1 1 2 1 1 2 1 1 1 2 2 3 2 2
7 7 6 6 6 5 4 4 4 3 2 2 2 3 3 2 1 1 1 2 2 2 2 2 2 2 2 2 1 1 1 2 2 1 1 2 2 2 2 2 2 2 2
6 6 6 6 6 5 5 4 4 4 4 3 3 3 2 2 1 0 2 2 3 2 2 2 3 2 2 2 3 3 2 2 2 2 2 2 2 2 2 2 3 3 3
6 6 6 5 5 5 4 4 4 3 3 3 3 3 3 3 3 2 3 3 4 3 3 2 2 2 2 2 3 3 3 3 3 3 3 3 3 2 2 3 4 4 3
6 5 5 5 4 4 4 4 3 3 3 4 3 4 3 3 4 4 3 3 4 4 4 4 3 3 3 3 3 3 3 3 4 3 3 3 3 4 2 2 2 3 4
5 5 4 4 4 4 4 3 3 3 3 4 3 4 4 4 6 6 4 4 4 4 4 4 5 4 4 4 4 4 5 4 3 3 3 4 4 5 6 5 4 4 3
5 4 4 4 3 3 3 3 3 3 4 4 4 4 5 6 7 9 8 4 4 4 4 4 3 6 6 6 6 5 6 5 4 5 4 4 4 4 5 5 4 4 5
5 5 4 4 4 3 3 3 3 4 5 5 5 5 5 5 7 9 10 9 7 5 5 3 2 4 6 8 7 7 6 5 5 5 4 4 4 4 4 5 5 5 5
4 4 4 3 3 3 4 4 4 5 5 5 5 5 5 4 6 9 11 10 10 6 5 4 4 6 7 6 8 8 6 5 5 5 5 5 4 4 4 4 4 5 5
4 3 3 3 4 4 4 5 5 4 4 4 4 4 4 3 3 3 4 5 6 6 5 5 5 7 7 6 5 6 6 6 6 6 5 4 4 3 4 4 4 3 3
3 3 4 4 4 3 4 4 4 3 4 4 3 3 3 3 1 1 2 2 3 3 2 3 4 4 4 4 5 5 5 5 6 6 5 4 4 4 4 3 3 3 4
3 3 4 4 3 4 4 3 3 4 5 6 4 4 3 3 3 3 3 3 3 3 2 4 5 5 5 5 5 5 4 4 5 5 5 5 4 4 4 4 4 4 5
3 3 3 3 3 4 4 4 4 4 5 6 6 6 7 6 5 5 5 4 4 4 4 6 6 5 5 4 4 4 4 4 4 4 4 4 4 4 4 4 4 4 4
3 3 3 4 5 5 4 4 5 5 4 4 5 8 9 8 8 6 5 2 3 4 5 6 5 5 4 4 4 4 3 3 3 4 4 4 4 5 4 4 4 4 4
3 2 3 4 5 4 4 5 5 5 4 3 3 3 6 7 6 6 5 4 6 6 6 5 5 5 4 4 4 4 4 4 4 4 4 4 4 5 5 5 5 6 5
2 3 3 4 5 5 5 5 5 5 4 3 2 2 1 2 3 4 5 6 6 6 6 5 4 4 4 4 4 4 4 4 5 5 5 4 4 4 5 6 5 5 4
3 3 5 5 5 4 4 5 4 4 4 4 3 3 2 3 3 4 4 4 4 4 4 4 4 4 4 3 4 5 5 5 4 4 4 4 4 4 4 5 5 5 4
4 3 3 4 4 3 4 4 4 4 4 4 4 2 3 3 3 3 3 3 3 3 3 4 4 4 3 3 3 4 5 4 4 3 4 4 4 4 4 5 5 4 5
4 4 3 3 3 4 4 4 3 3 4 4 4 2 1 2 2 2 2 2 3 3 3 3 4 3 3 2 2 2 3 4 4 4 4 4 4 4 4 5 6 6 5
4 4 3 3 3 3 3 3 3 3 3 3 3 3 2 2 2 2 3 3 3 3 3 3 3 4 3 2 1 2 3 3 4 4 5 6 6 5 5 5 6 7 6
4 3 4 3 3 3 3 3 3 3 3 3 3 3 3 3 2 2 2 3 3 4 4 4 3 3 2 3 4 3 3 4 4 5 5 6 7 7 7 7 6 6 6
4 4 4 4 3 3 3 3 3 4 4 4 3 3 4 4 4 3 3 3 4 3 3 4 5 4 3 3 3 3 3 3 4 5 5 5 7 6 6 6 7 6 7
Wind_Direction
173 174 169 170 181 173 182 187 148 143 149 153 139 145 159 157 164 198 224 198 228 246 265 237 245 275 307 301 290 276 256 188 234 274 114 110 131 119 156 187 176 168 178
167 166 167 169 167 171 176 173 152 158 162 157 155 161 182 166 167 181 220 228 234 242 252 256 254 255 252 292 304 297 296 251 193 247 193 188 197 182 192 217 188 181 174
165 167 170 171 165 164 162 153 149 153 158 163 162 172 178 170 180 201 216 236 241 244 239 246 256 268 265 286 290 292 286 280 193 206 237 202 196 195 198 234 201 181 193
163 166 167 170 169 162 152 151 161 169 174 175 178 187 176 163 180 218 222 229 243 251 231 242 269 286 291 280 270 300 304 298 264 217 210 207 174 198 197 210 224 212 208
160 163 164 169 163 159 160 162 167 178 183 178 186 184 180 174 201 221 261 229 238 252 241 230 254 233 297 282 274 308 287 272 255 233 231 220 202 196 221 225 221 209 208
160 162 161 166 164 165 169 166 165 170 175 183 188 191 197 203 178 182 230 266 243 226 237 228 223 213 197 194 196 215 296 270 282 275 257 242 238 234 236 244 224 218 228
159 160 160 165 166 169 179 171 179 181 186 197 198 187 172 173 194 228 223 246 254 227 234 248 262 249 193 218 220 220 234 247 240 248 268 269 267 245 244 258 252 248 237
163 165 163 168 171 171 177 180 189 192 193 206 208 190 188 200 197 214 267 254 252 245 234 234 243 244 258 261 250 240 238 242 246 242 244 263 263 258 237 241 248 249 246
162 162 163 166 168 170 175 186 192 197 200 212 208 199 201 204 205 206 229 254 251 249 243 238 231 229 235 238 243 248 253 254 250 252 243 236 243 247 244 245 247 243 253
157 154 154 158 168 178 181 186 195 200 212 220 212 206 204 206 201 202 217 248 255 251 239 230 220 218 220 226 238 240 246 251 252 249 238 241 235 234 229 222 230 243 251
145 144 149 150 167 182 171 174 193 212 221 227 225 221 208 205 199 205 205 233 255 265 254 245 229 199 214 231 244 247 248 255 250 241 236 233 229 230 227 226 231 238 247
145 150 159 167 190 185 174 195 207 216 222 224 227 235 230 209 201 205 208 224 250 263 264 263 243 223 234 240 242 244 247 253 253 247 243 240 236 235 233 230 229 230 241
154 162 173 182 195 188 198 213 222 222 227 233 227 231 236 219 206 210 210 226 242 252 271 286 277 250 247 244 239 235 235 241 246 250 246 241 233 233 237 231 224 228 241
162 174 185 195 207 202 214 223 224 228 232 236 237 241 245 237 213 199 213 229 243 253 272 283 269 249 243 241 238 228 226 235 240 248 249 245 236 229 232 231 229 223 235
173 183 203 217 212 211 224 233 237 234 232 235 251 259 270 264 247 185 219 237 247 250 268 269 265 250 239 237 233 228 226 227 236 247 253 251 246 244 240 233 225 228 233
198 207 221 227 212 215 224 227 228 229 222 216 221 237 247 223 210 208 218 230 231 216 226 254 258 255 250 248 248 244 236 234 233 233 239 244 246 243 243 239 232 234 243
227 228 237 240 234 231 229 229 244 247 240 242 237 237 239 233 225 227 233 241 242 201 226 252 256 257 259 256 251 253 255 247 237 239 241 244 249 251 247 244 239 237 242
246 240 241 247 248 246 242 243 248 253 250 244 236 232 230 228 223 222 214 198 252 230 238 249 258 261 259 255 256 260 262 261 249 244 249 252 254 258 256 250 248 247 247
256 264 265 267 264 258 256 257 258 256 252 249 244 232 221 220 217 222 204 224 244 252 251 249 252 258 259 254 253 256 258 257 260 256 253 254 256 259 262 259 256 257 249
263 263 264 272 272 268 262 263 265 267 264 263 265 271 194 199 219 219 213 226 240 251 254 255 257 262 266 264 256 252 250 251 252 249 249 248 254 259 261 263 263 259 253
272 254 238 255 267 277 279 281 279 277 277 274 271 253 216 228 239 239 236 229 240 260 275 279 276 270 266 261 262 258 256 253 251 256 249 246 254 259 264 267 267 266 269
287 284 269 269 272 276 278 278 279 283 288 287 284 263 206 233 257 261 265 268 270 269 273 272 276 281 285 283 283 286 279 272 264 266 266 257 252 258 262 263 263 263 263
291 294 295 294 286 284 276 279 283 294 297 296 294 295 237 250 275 282 291 294 293 281 277 275 279 284 287 287 294 292 289 295 292 282 276 270 266 265 264 266 268 270 269
289 289 290 289 281 281 297 306 302 303 303 303 312 317 310 291 292 296 300 297 295 289 285 281 280 292 305 313 306 302 302 315 316 306 296 288 280 272 269 265 263 261 259
305 308 309 310 309 311 320 327 330 320 313 312 315 317 314 308 305 309 318 325 316 311 313 317 313 320 345 341 333 334 355 357 340 320 304 289 283 274 267 265 265 268 265
330 334 342 347 343 346 347 342 341 339 327 326 336 340 335 329 327 328 331 332 326 325 323 324 329 334 339 353 10 12 1 346 327 317 303 287 283 280 280 277 273 270 268
Height
1516 1517 1519 1521 1522 1524 1525 1526 1527 1527 1528 1529 1529 1530 1530 1530 1530 1531 1531 1531 1531 1531 1531 1531 1531 1531 1531 1532 1532 1532 1532 1532 1532 1531 1531 1531 1531 1531 1530 1530 1530 1529 1529
1513 1515 1517 1518 1520 1521 1522 1523 1524 1525 1526 1527 1527 1527 1528 1528 1528 1529 1529 1529 1530 1530 1529 1530 1529 1530 1530 1530 1530 1530 1530 1530 1530 1529 1529 1529 1529 1528 1528 1528 1528 1527 1527
1511 1513 1515 1516 1518 1519 1520 1521 1522 1523 1524 1524 1525 1525 1526 1526 1527 1527 1527 1528 1528 1528 1528 1528 1528 1528 1528 1528 1528 1528 1528 1528 1527 1527 1527 1526 1526 1526 1526 1525 1525 1525 1525
1509 1511 1513 1514 1516 1517 1518 1519 1520 1521 1522 1522 1523 1523 1524 1524 1525 1525 1526 1526 1526 1526 1526 1526 1526 1526 1525 1526 1526 1525 1525 1525 1525 1525 1525 1524 1524 1523 1523 1523 1522 1522 1522
1506 1508 1510 1512 1514 1515 1516 1516 1518 1519 1520 1520 1521 1521 1522 1522 1523 1523 1524 1524 1524 1524 1524 1524 1524 1523 1523 1523 1523 1523 1523 1523 1523 1522 1522 1522 1521 1521 1520 1520 1520 1520 1520
1504 1506 1508 1510 1511 1512 1513 1514 1515 1516 1518 1519 1519 1519 1520 1520 1520 1521 1521 1521 1521 1522 1521 1521 1521 1521 1521 1521 1520 1520 1520 1520 1520 1520 1519 1519 1519 1518 1518 1518 1517 1517 1517
1502 1504 1506 1507 1509 1510 1512 1512 1513 1514 1515 1516 1517 1517 1517 1517 1518 1519 1519 1519 1519 1519 1519 1519 1519 1519 1518 1518 1518 1518 1517 1517 1517 1517 1517 1516 1516 1515 1515 1515 1515 1514 1514
1500 1502 1504 1505 1506 1508 1509 1510 1511 1512 1513 1513 1514 1515 1515 1515 1516 1516 1516 1516 1516 1516 1516 1516 1516 1516 1516 1515 1515 1514 1514 1514 1514 1513 1513 1513 1513 1512 1512 1511 1511 1511 1510
1497 1499 1501 1503 1504 1506 1507 1508 1509 1510 1510 1511 1512 1512 1513 1513 1513 1513 1514 1513 1513 1513 1513 1513 1513 1513 1513 1512 1512 1511 1511 1510 1510 1510 1510 1509 1509 1508 1508 1508 1507 1507 1506
1495 1497 1499 1501 1502 1504 1504 1505 1507 1508 1508 1509 1509 1510 1510 1510 1510 1511 1511 1510 1510 1510 1510 1510 1510 1509 1509 1509 1508 1507 1506 1506 1507 1506 1505 1505 1504 1504 1504 1503 1503 1503 1503
1493 1495 1497 1498 1500 1501 1502 1503 1504 1505 1506 1506 1507 1507 1507 1507 1507 1507 1507 1507 1507 1506 1506 1506 1506 1506 1505 1505 1504 1504 1503 1503 1502 1502 1501 1501 1500 1499 1499 1499 1499 1499 1499
1492 1494 1496 1497 1499 1500 1500 1501 1502 1502 1503 1503 1503 1504 1504 1504 1504 1504 1504 1504 1503 1503 1503 1502 1502 1502 1501 1501 1500 1500 1500 1499 1499 1498 1497 1497 1496 1495 1495 1495 1495 1495 1495
1491 1492 1494 1495 1496 1497 1498 1498 1499 1500 1500 1500 1500 1501 1501 1501 1500 1500 1500 1500 1499 1499 1499 1498 1498 1497 1497 1496 1496 1496 1496 1495 1494 1494 1493 1493 1492 1492 1492 1491 1491 1490 1490
1489 1490 1492 1493 1494 1495 1495 1496 1497 1497 1497 1497 1497 1497 1498 1498 1497 1496 1495 1495 1495 1495 1495 1494 1494 1493 1493 1492 1491 1491 1491 1491 1490 1490 1489 1489 1489 1488 1488 1487 1487 1486 1486
1487 1488 1489 1491 1491 1492 1492 1493 1493 1494 1494 1494 1494 1494 1495 1494 1493 1493 1492 1491 1491 1491 1490 1490 1489 1488 1488 1487 1487 1487 1486 1486 1486 1485 1485 1485 1484 1484 1483 1483 1483 1482 1481
1486 1486 1488 1488 1489 1489 1489 1490 1490 1491 1491 1491 1491 1491 1490 1490 1490 1489 1488 1488 1487 1487 1486 1485 1484 1484 1483 1483 1483 1482 1482 1481 1481 1481 1480 1480 1480 1479 1479 1479 1479 1478 1477
1483 1485 1485 1486 1487 1487 1487 1487 1487 1487 1487 1487 1486 1486 1486 1486 1485 1485 1484 1483 1483 1483 1482 1481 1480 1480 1479 1479 1479 1478 1478 1477 1477 1476 1475 1475 1475 1475 1475 1474 1474 1474 1473
1481 1482 1483 1483 1484 1484 1484 1484 1484 1484 1483 1482 1482 1482 1482 1481 1481 1480 1480 1479 1478 1478 1477 1476 1476 1475 1475 1474 1474 1474 1473 1473 1472 1471 1471 1471 1471 1471 1470 1470 1469 1469 1469
1479 1480 1481 1481 1481 1481 1481 1481 1481 1481 1480 1479 1479 1478 1478 1477 1477 1476 1476 1475 1474 1473 1473 1472 1472 1471 1471 1470 1469 1469 1468 1467 1467 1467 1466 1466 1466 1466 1465 1465 1464 1464 1464
1477 1478 1478 1478 1479 1479 1479 1478 1478 1477 1476 1475 1475 1474 1474 1473 1472 1472 1471 1470 1470 1470 1469 1468 1467 1467 1466 1465 1465 1464 1463 1462 1462 1462 1461 1461 1461 1461 1460 1460 1459 1459 1459
1475 1476 1475 1476 1476 1476 1476 1475 1475 1474 1473 1472 1471 1470 1470 1469 1469 1468 1468 1467 1466 1466 1465 1464 1463 1462 1461 1460 1460 1459 1458 1458 1457 1456 1456 1456 1456 1455 1455 1455 1455 1454 1454
1473 1473 1473 1473 1473 1473 1472 1472 1471 1470 1469 1469 1468 1467 1466 1466 1465 1464 1464 1463 1463 1462 1461 1460 1459 1458 1457 1456 1455 1454 1453 1453 1452 1452 1451 1450 1450 1450 1450 1449 1449 1449 1449
1471 1471 1471 1471 1470 1470 1470 1469 1468 1467 1467 1466 1465 1464 1463 1462 1461 1461 1460 1460 1459 1458 1457 1456 1455 1454 1453 1452 1450 1450 1449 1447 1447 1446 1446 1445 1445 1445 1444 1444 1443 1443 1443
1469 1469 1469 1468 1468 1468 1467 1466 1465 1465 1464 1463 1462 1461 1460 1459 1458 1457 1457 1456 1455 1454 1454 1452 1451 1449 1448 1447 1446 1444 1443 1443 1442 1441 1440 1440 1439 1439 1438 1438 1437 1437 1437
1467 1467 1466 1466 1465 1464 1464 1463 1463 1462 1461 1460 1459 1458 1457 1456 1455 1454 1453 1452 1451 1450 1450 1449 1447 1445 1443 1442 1440 1439 1437 1437 1436 1435 1434 1434 1433 1432 1432 1432 1431 1431 1431
1465 1465 1464 1463 1462 1462 1461 1461 1460 1459 1458 1457 1456 1455 1454 1453 1452 1451 1450 1449 1448 1447 1445 1444 1442 1441 1439 1437 1435 1433 1432 1431 1430 1429 1429 1428 1427 1426 1426 1426 1425 1425 1425